Emerado, ND

7:25 PM CST on February 24, 2017 (GMT -0600)
Grand Forks International

Weather History for KGFK - November, 2012

Change the Weather History Date:

Tuesday, November 27, 2012

  Actual Average Record
Temperature  
Mean Temperature 21 °F 19 °F  
Max Temperature 26 °F 28 °F 48 °F (1962)
Min Temperature 16 °F 11 °F -30 °F (1985)
Degree Days  
Heating Degree Days 44 46  
Month to date heating degree days 1010 1028  
Since 1 July heating degree days 1999 2059  
Cooling Degree Days 0 0  
Month to date cooling degree days 0 0  
Year to date cooling degree days 572 379  
Moisture  
Dew Point 14 °F    
Average Humidity 78    
Maximum Humidity 88    
Minimum Humidity 67    
Precipitation  
Precipitation T in 0.02 in 0.16 in (1964)
Month to date precipitation 0.85 0.88  
Year to date precipitation 16.77 20.13  
Snow  
Snow T in 0.30 in 2.30 in (2001)
Month to date snowfall 7.0 6.7  
Since 1 July snowfall 9.7 8.2  
Since 1 September snowfall 9.7 8.2  
Snow Depth 2.00 in    
Sea Level Pressure  
Sea Level Pressure 30.18 in    
Wind  
Wind Speed 6 mph (NNW)    
Max Wind Speed 13 mph    
Max Gust Speed 16 mph    
Visibility 10 miles    
Events Snow    
T = Trace of Precipitation, MM = Missing Value Source: NWS Daily Summary

Daily Weather History Graph

Daily Weather History Graph

Search for Another Location

Airport or City:

Trip Planner

Search our weather history database for the weather conditions in past years. The results will help you decide how hot, cold, wet, or windy it might be!

Date:

Astronomy

Nov. 27, 2012 Rise Set
Actual Time 7:52 AM CST 4:39 PM CST
Civil Twilight 7:17 AM CST 5:15 PM CST
Nautical Twilight 6:39 AM CST 5:53 PM CST
Astronomical Twilight 6:01 AM CST 6:30 PM CST
Moon 4:13 PM CST (11/27) 6:57 AM CST (11/27)
Length of Visible Light 9h 57m
Length of Day
8h 47m
Waxing Gibbous, 99% of the Moon is Illuminated
Nov 27
Waxing Gibbous
Nov 28
Full
Dec 6
Last Quarter
Dec 13
New
Dec 19
First Quarter

Hourly Weather History & Observations

Time (CST) Temp. Windchill Dew Point Humidity Pressure Visibility Wind Dir Wind Speed Gust Speed Precip Events Conditions
12:53 AM 21.9 °F 13.4 °F 16.0 °F 78% 30.15 in 10.0 mi SSW 6.9 mph - N/A   Overcast
1:53 AM 23.0 °F 13.1 °F 17.1 °F 78% 30.14 in 10.0 mi SW 9.2 mph - N/A   Overcast
2:45 AM 24.8 °F 16.9 °F 17.6 °F 74% 30.08 in 10.0 mi SW 6.9 mph - N/A   Overcast
2:53 AM 24.1 °F 16.0 °F 18.0 °F 77% 30.13 in 10.0 mi SSW 6.9 mph - N/A   Overcast
3:48 AM 24.8 °F 16.9 °F 19.4 °F 80% 30.07 in 10.0 mi SW 6.9 mph - N/A   Overcast
3:53 AM 24.1 °F 16.0 °F 19.0 °F 81% 30.12 in 10.0 mi SW 6.9 mph - N/A   Overcast
4:53 AM 25.0 °F 20.7 °F 19.9 °F 81% 30.11 in 10.0 mi WSW 3.5 mph - N/A   Overcast
5:53 AM 25.0 °F 18.1 °F 21.0 °F 85% 30.11 in 10.0 mi NW 5.8 mph - N/A   Overcast
6:53 AM 23.0 °F 11.7 °F 18.0 °F 81% 30.13 in 10.0 mi North 11.5 mph - N/A   Overcast
7:43 AM 21.2 °F 10.9 °F 17.6 °F 86% 30.08 in 10.0 mi North 9.2 mph - N/A   Overcast
7:53 AM 21.9 °F 11.7 °F 17.1 °F 82% 30.14 in 10.0 mi North 9.2 mph - N/A   Overcast
8:53 AM 19.0 °F 8.2 °F 12.0 °F 74% 30.15 in 10.0 mi NE 9.2 mph - N/A   Overcast
9:53 AM 18.0 °F 6.1 °F 10.9 °F 74% 30.17 in 10.0 mi NNE 10.4 mph - N/A   Overcast
10:53 AM 19.0 °F 10.0 °F 10.9 °F 71% 30.19 in 10.0 mi NNW 6.9 mph - N/A   Overcast
11:53 AM 19.0 °F 10.0 °F 12.0 °F 74% 30.18 in 8.0 mi NNW 6.9 mph - 0.00 in   Overcast
12:53 PM 19.0 °F 11.1 °F 12.0 °F 74% 30.18 in 10.0 mi North 5.8 mph - N/A   Overcast
1:53 PM 19.0 °F 11.1 °F 12.9 °F 77% 30.18 in 10.0 mi North 5.8 mph - N/A   Overcast
2:53 PM 19.9 °F 12.1 °F 12.9 °F 74% 30.19 in 5.0 mi North 5.8 mph - 0.00 in Snow Light Snow
3:40 PM 19.4 °F 12.8 °F 12.2 °F 74% 30.15 in 10.0 mi North 4.6 mph - 0.00 in   Mostly Cloudy
3:53 PM 19.0 °F 12.3 °F 12.9 °F 77% 30.19 in 10.0 mi North 4.6 mph - 0.00 in   Mostly Cloudy
4:53 PM 18.0 °F 11.1 °F 12.9 °F 81% 30.22 in 10.0 mi NNE 4.6 mph - N/A   Mostly Cloudy
5:53 PM 18.0 °F 12.7 °F 12.0 °F 78% 30.24 in 10.0 mi NNE 3.5 mph - N/A   Overcast
6:53 PM 17.1 °F - 12.0 °F 81% 30.25 in 10.0 mi Calm Calm - N/A   Overcast
7:53 PM 16.0 °F 7.4 °F 10.9 °F 81% 30.26 in 10.0 mi NE 5.8 mph - N/A   Overcast
8:53 PM 16.0 °F 10.4 °F 10.9 °F 81% 30.28 in 10.0 mi NNE 3.5 mph - N/A   Overcast
9:53 PM 17.1 °F - 10.9 °F 77% 30.29 in 10.0 mi Calm Calm - N/A   Overcast
10:53 PM 17.1 °F 11.7 °F 10.9 °F 77% 30.30 in 10.0 mi NNW 3.5 mph - N/A   Overcast
11:53 PM 17.1 °F - 10.9 °F 77% 30.30 in 10.0 mi Calm Calm - N/A   Overcast